Wellsville, NY

7:02 AM EDT on April 24, 2018 (GMT -0400)
Wellsville Municipal-Tarantine

Weather History for KELZ - December, 2013

Change the Weather History Date:

Tuesday, December 24, 2013

  Actual Average (KDSV) Record (KDSV)
Temperature  
Mean Temperature 16 °F -  
Max Temperature 24 °F 37 °F 64 °F (2015)
Min Temperature 8 °F 19 °F -7 °F (1960)
Degree Days  
Heating Degree Days 49    
Moisture  
Dew Point 13 °F    
Average Humidity 76    
Maximum Humidity 86    
Minimum Humidity 62    
Precipitation  
Precipitation 0.00 in - - ()
Sea Level Pressure  
Sea Level Pressure 30.20 in    
Wind  
Wind Speed 9 mph (WNW)    
Max Wind Speed 18 mph    
Max Gust Speed 29 mph    
Visibility 6 miles    
Events Snow    
Averages and records for this station are not official NWS values.
T = Trace of Precipitation, MM = Missing Value Source: NWS Daily Summary

Daily Weather History Graph

Daily Weather History Graph

Search for Another Location

Airport or City:

Astronomy

Dec. 24, 2013 Rise Set
Actual Time 7:38 AM EST 4:45 PM EST
Civil Twilight 7:06 AM EST 5:16 PM EST
Nautical Twilight 6:31 AM EST 5:52 PM EST
Astronomical Twilight 5:57 AM EST 6:26 PM EST
Moon 11:58 PM EST 11:24 AM EST
Length of Visible Light 10h 10m
Length of Day
9h 06m
Waning Gibbous, 59% of the Moon is Illuminated
Dec 24
Waning Gibbous
Dec 25
Last Quarter
Jan 1
New
Jan 7
First Quarter
Jan 15
Full

Hourly Weather History & Observations

Time (EST) Temp. Windchill Dew Point Humidity Pressure Visibility Wind Dir Wind Speed Gust Speed Precip Events Conditions
12:39 AM 24.8 °F 17.9 °F 19.4 °F 80% 30.16 in 9.0 mi NNW 5.8 mph - 0.00 in Snow Light Snow
12:56 AM 24.1 °F 17.0 °F 19.0 °F 81% 30.23 in 9.0 mi NNE 5.8 mph - 0.00 in Snow Light Snow
1:15 AM 24.8 °F 16.9 °F 17.6 °F 74% 30.16 in 9.0 mi North 6.9 mph - 0.00 in Snow Light Snow
1:36 AM 23.0 °F 14.7 °F 17.6 °F 80% 30.15 in 9.0 mi North 6.9 mph - 0.00 in Snow Light Snow
1:56 AM 23.0 °F 15.8 °F 18.0 °F 81% 30.23 in 9.0 mi NNE 5.8 mph - 0.00 in   Overcast
2:56 AM 23.0 °F 18.4 °F 18.0 °F 81% 30.24 in 9.0 mi North 3.5 mph - 0.00 in Snow Light Snow
3:56 AM 23.0 °F - 18.0 °F 81% 30.21 in 8.0 mi Calm Calm - 0.00 in Snow Light Snow
4:02 AM 23.0 °F 18.4 °F 17.6 °F 80% 30.12 in 8.0 mi East 3.5 mph - 0.00 in Snow Light Snow
4:56 AM 23.0 °F - 18.0 °F 81% 30.19 in 10.0 mi Calm Calm - 0.00 in   Overcast
5:56 AM 23.0 °F 18.4 °F 19.0 °F 85% 30.19 in 6.0 mi SW 3.5 mph - 0.00 in Snow Light Snow
6:22 AM 21.2 °F 14.9 °F 17.6 °F 86% 30.10 in 10.0 mi WSW 4.6 mph - 0.00 in   Scattered Clouds
6:56 AM 21.9 °F 14.5 °F 17.1 °F 82% 30.19 in 10.0 mi West 5.8 mph - 0.00 in   Clear
7:20 AM 21.2 °F 16.4 °F 17.6 °F 86% 30.09 in 10.0 mi WSW 3.5 mph - N/A   Mostly Cloudy
7:28 AM 21.2 °F 13.6 °F 17.6 °F 86% 30.09 in 10.0 mi WSW 5.8 mph - N/A   Mostly Cloudy
7:56 AM 21.9 °F 15.7 °F 17.1 °F 82% 30.18 in 10.0 mi WSW 4.6 mph - N/A   Scattered Clouds
8:29 AM 23.0 °F 15.8 °F 17.6 °F 80% 30.09 in 2.5 mi WSW 5.8 mph - 0.00 in Snow Light Snow
8:43 AM 23.0 °F 13.1 °F 19.4 °F 86% 30.09 in 1.2 mi West 9.2 mph - 0.00 in Snow Light Snow
8:54 AM 23.0 °F 11.7 °F 17.6 °F 80% 30.10 in 3.0 mi West 11.5 mph - 0.00 in Snow Light Snow
8:56 AM 23.0 °F 11.1 °F 18.0 °F 81% 30.19 in 4.0 mi West 12.7 mph - 0.00 in Snow Light Snow
9:04 AM 23.0 °F 13.9 °F 17.6 °F 80% 30.10 in 8.0 mi West 8.1 mph - 0.00 in   Overcast
9:16 AM 24.8 °F 14.0 °F 17.6 °F 74% 30.11 in 6.0 mi West 11.5 mph - 0.00 in Snow Light Snow
9:56 AM 24.1 °F 12.5 °F 17.1 °F 75% 30.20 in 7.0 mi West 12.7 mph - 0.00 in   Overcast
10:20 AM 23.0 °F 8.7 °F 17.6 °F 80% 30.11 in 1.5 mi WNW 18.4 mph 25.3 mph 0.00 in Snow Light Snow
10:32 AM 23.0 °F 9.2 °F 15.8 °F 74% 30.12 in 3.0 mi WNW 17.3 mph 28.8 mph 0.00 in Snow Light Snow
10:56 AM 23.0 °F 8.7 °F 16.0 °F 74% 30.21 in 4.0 mi NW 18.4 mph 23.0 mph 0.00 in Snow Light Snow
11:06 AM 21.2 °F 8.9 °F 15.8 °F 80% 30.12 in 2.0 mi NW 12.7 mph 23.0 mph 0.00 in Snow Light Snow
11:12 AM 21.2 °F 8.3 °F 15.8 °F 80% 30.12 in 4.0 mi NW 13.8 mph - 0.00 in Snow Light Snow
11:35 AM 21.2 °F 8.9 °F 15.8 °F 80% 30.11 in 2.0 mi WNW 12.7 mph 20.7 mph 0.00 in Snow Light Snow
11:51 AM 21.2 °F 10.1 °F 14.0 °F 74% 30.11 in 8.0 mi NW 10.4 mph 20.7 mph 0.00 in   Overcast
11:56 AM 21.9 °F 10.4 °F 14.0 °F 72% 30.20 in 6.0 mi NW 11.5 mph 20.7 mph 0.00 in Snow Light Snow
12:06 PM 21.2 °F 7.8 °F 15.8 °F 80% 30.11 in 2.5 mi WNW 15.0 mph 20.7 mph 0.00 in Snow Light Snow
12:15 PM 21.2 °F 6.8 °F 14.0 °F 74% 30.11 in 2.5 mi NW 17.3 mph 25.3 mph 0.00 in Snow Light Snow
12:21 PM 21.2 °F 6.4 °F 14.0 °F 74% 30.11 in 0.8 mi NW 18.4 mph 25.3 mph 0.00 in Snow Light Snow
12:35 PM 21.2 °F 7.3 °F 12.2 °F 68% 30.11 in 2.0 mi NW 16.1 mph 27.6 mph 0.00 in Snow Light Snow
12:42 PM 21.2 °F 6.4 °F 12.2 °F 68% 30.11 in 9.0 mi NW 18.4 mph 24.2 mph 0.00 in Snow Light Snow
12:56 PM 21.0 °F 8.1 °F 12.0 °F 68% 30.20 in 4.0 mi WNW 13.8 mph 23.0 mph 0.00 in Snow Light Snow
1:04 PM 19.4 °F 6.0 °F 10.4 °F 68% 30.11 in 7.0 mi WNW 13.8 mph - 0.00 in Snow Light Snow
1:11 PM 19.4 °F 4.5 °F 12.2 °F 74% 30.11 in 2.5 mi WNW 17.3 mph - 0.00 in Snow Light Snow
1:24 PM 21.2 °F 7.8 °F 12.2 °F 68% 30.11 in 9.0 mi WNW 15.0 mph 19.6 mph 0.00 in   Overcast
1:56 PM 19.9 °F 6.7 °F 10.9 °F 68% 30.22 in 10.0 mi WNW 13.8 mph 23.0 mph 0.00 in   Overcast
2:47 PM 19.4 °F 7.9 °F 12.2 °F 74% 30.13 in 2.5 mi WNW 10.4 mph - 0.00 in Snow Light Snow
2:56 PM 19.9 °F 6.7 °F 9.0 °F 62% 30.24 in 6.0 mi West 13.8 mph 23.0 mph 0.00 in Snow Light Snow
3:56 PM 19.0 °F 6.8 °F 10.9 °F 71% 30.27 in 2.0 mi West 11.5 mph - 0.00 in Snow Light Snow
4:03 PM 17.6 °F 4.3 °F 12.2 °F 79% 30.17 in 1.0 mi West 12.7 mph - 0.00 in Snow Light Snow
4:09 PM 17.6 °F 3.7 °F 12.2 °F 79% 30.18 in 0.8 mi WNW 13.8 mph - 0.00 in Snow Light Snow
4:18 PM 17.6 °F 2.2 °F 12.2 °F 79% 30.18 in 0.5 mi WNW 17.3 mph 24.2 mph 0.00 in Snow Snow
4:22 PM 17.6 °F 2.2 °F 10.4 °F 73% 30.19 in 1.5 mi WNW 17.3 mph 26.5 mph 0.00 in Snow Light Snow
4:24 PM 17.6 °F 2.7 °F 10.4 °F 73% 30.19 in 3.0 mi WNW 16.1 mph 26.5 mph 0.00 in Snow Light Snow
4:31 PM 17.6 °F 2.7 °F 10.4 °F 73% 30.19 in 1.8 mi WNW 16.1 mph 23.0 mph 0.00 in Snow Light Snow
4:38 PM 17.6 °F 5.0 °F 12.2 °F 79% 30.20 in 0.8 mi NW 11.5 mph 23.0 mph 0.00 in Snow Light Snow
4:41 PM 17.6 °F 2.7 °F 12.2 °F 79% 30.20 in 1.0 mi NW 16.1 mph 21.9 mph 0.00 in Snow Light Snow
4:53 PM 17.6 °F 3.7 °F 10.4 °F 73% 30.21 in 2.5 mi NW 13.8 mph 19.6 mph 0.00 in Snow Light Snow
4:56 PM 17.1 °F 5.0 °F 10.0 °F 74% 30.32 in 3.0 mi NW 10.4 mph 19.6 mph 0.00 in Snow Light Snow
5:56 PM 15.1 °F -0.1 °F 8.1 °F 74% 30.35 in 10.0 mi NW 15.0 mph 20.7 mph 0.00 in   Overcast
6:56 PM 14.0 °F -1.4 °F 7.0 °F 74% 30.38 in 6.0 mi NNW 15.0 mph - 0.00 in Snow Light Snow
7:56 PM 12.9 °F -0.2 °F 7.0 °F 77% 30.41 in 4.0 mi NW 10.4 mph - 0.00 in Snow Light Snow
8:16 PM 12.2 °F -5.3 °F 6.8 °F 79% 30.30 in 10.0 mi WNW 18.4 mph - 0.00 in   Scattered Clouds
8:56 PM 12.0 °F -5.6 °F 3.0 °F 67% 30.42 in 10.0 mi NW 18.4 mph - 0.00 in   Mostly Cloudy
9:56 PM 10.9 °F -6.5 °F 3.0 °F 70% 30.44 in 10.0 mi NW 17.3 mph 24.2 mph N/A   Scattered Clouds
10:14 PM 10.4 °F -6.0 °F 1.4 °F 67% 30.32 in 10.0 mi NW 15.0 mph 24.2 mph N/A   Mostly Cloudy
10:56 PM 10.9 °F -4.7 °F 3.0 °F 70% 30.45 in 10.0 mi NW 13.8 mph - N/A   Overcast
11:44 PM 8.6 °F -8.3 °F 1.4 °F 73% 30.33 in 10.0 mi NW 15.0 mph - N/A   Scattered Clouds
11:56 PM 9.0 °F -3.2 °F 1.9 °F 73% 30.46 in 10.0 mi NW 8.1 mph 20.7 mph N/A   Partly Cloudy